www.pogodaiklimat.ru

Погода и климат >> Архив погоды >> Россия >> Мурманская область >> Кировск


ПОГОДА в Кировске

  • Прогноз погоды в Кировске
  • Монитор погоды в Кировске

АРХИВ ПОГОДЫ в Кировске

Время (UTC), дата Ветер
(напр.,м/с)
 
Видим.   Явления Облачность Т
(С)
Тd
(С)
f
(%)
Тe
(С)
Тes
(С)
Комфортность P
(гПа)
Po
(гПа)
Тmin
(С)
Tmax
(С)
R
(мм)
R24
(мм)
S
(см)
09 13.08 Ю 1 н/о н/о +10.7 +10.0 95 +10 +10 1008.2 961.0
12 13.08 Ю 1 н/о н/о +11.0 +10.5 97 +11 +11 1007.8 960.7
15 13.08 В 1 н/о н/о +11.3 +11.1 99 +11 +11 1007.0 960.0 0.3
18 13.08 З 1 н/о н/о +10.7 +10.5 99 +10 +10 1007.0 959.9 +11.4 0.5
21 13.08 штиль 0 н/о н/о +10.5 +10.5 100 +10 +10 1006.4 959.3
03 14.08 штиль 0 н/о н/о +10.3 +10.3 100 +9 +9 1004.8 957.7 +10.1 0.5
06 14.08 штиль 0 н/о н/о +11.1 +11.1 100 +10 +10 1004.2 957.3 +10.1 0.5
09 14.08 ЮЗ 1 н/о н/о +13.2 +12.4 95 +13 +13 1003.4 956.9
12 14.08 ЮЗ 2 н/о н/о +15.0 +11.5 80 +15 +15 1002.9 956.7
15 14.08 ЮВ 2 н/о н/о +14.4 +11.6 83 +14 +14 1002.8 956.5 0.8
18 14.08 штиль 0 н/о н/о +11.8 +11.8 100 +11 +11 1003.5 956.8 +15.9 2
21 14.08 ЮЗ 1 н/о н/о +11.0 +11.0 100 +11 +11 1003.3 956.5
00 15.08 штиль 0 н/о н/о +10.7 +10.7 100 +10 +10 1003.3 956.3
03 15.08 ЮЗ 1 н/о н/о +10.7 +10.7 100 +10 +10 1002.8 955.9 +10.6 4
06 15.08 штиль 0 н/о н/о +11.8 +11.8 100 +11 +11 1002.4 955.7 +10.4 3
09 15.08 С 1 н/о н/о +12.5 +10.0 85 +12 +12 1001.6 955.1
12 15.08 В 1 н/о н/о +14.7 +10.5 76 +15 +15 1001.2 955.0
15 15.08 ЮВ 1 н/о н/о +13.9 +9.7 76 +14 +14 1001.4 955.0 2
18 15.08 Ю 1 н/о н/о +11.4 +10.6 95 +11 +11 1002.2 955.4 +15.8 0.8
21 15.08 штиль 0 н/о н/о +10.2 +9.1 93 +9 +9 1002.6 955.6
00 16.08 С 2 н/о н/о +9.3 +8.3 93 +7 +7 1003.6 956.4
03 16.08 С 2 н/о н/о +10.0 +8.5 90 +8 +8 1004.3 957.2 +9.0
06 16.08 С 1 н/о н/о +13.3 +8.9 75 +14 +14 1005.5 958.9 +9.0
09 16.08 Ю 1 н/о н/о +11.7 +10.2 91 +11 +11 1007.3 960.3
12 16.08 ЮЗ 1 н/о н/о +11.9 +10.6 92 +12 +12 1008.9 961.9
15 16.08 Ю 1 н/о н/о +12.8 +10.4 85 +13 +13 1009.7 962.8
18 16.08 Ю 1 н/о н/о +11.2 +10.3 94 +11 +11 1011.0 963.8 +13.9
21 16.08 ЮВ 2 н/о н/о +11.0 +10.0 94 +10 +10 1011.6 964.4
00 17.08 Ю 1 н/о н/о +11.0 +10.3 95 +11 +11 1012.3 965.0
03 17.08 ЮВ 2 н/о н/о +11.0 +10.4 96 +10 +10 1012.4 965.1 +10.2
06 17.08 Ю 1 н/о н/о +11.1 +10.2 94 +11 +11 1012.8 965.5 +10.2
09 17.08 Ю 2 н/о н/о +16.1 +11.4 74 +16 +16 1012.1 965.6
12 17.08 Ю 2 н/о н/о +14.3 +9.4 72 +14 +14 1012.6 965.8
15 17.08 ЮВ 3 н/о н/о +14.0 +10.8 81 +13 +13 1012.6 965.8
18 17.08 Ю 1 н/о н/о +13.5 +11.2 86 +14 +14 1013.2 966.3 +16.2
21 17.08 штиль 0 н/о н/о +12.6 +11.2 91 +12 +12 1013.6 966.5
00 18.08 штиль 0 н/о н/о +12.9 +11.1 89 +12 +12 1014.0 966.9
03 18.08 Ю 1 н/о н/о +13.0 +11.2 89 +13 +13 1013.9 966.8 +12.3
06 18.08 ЮЗ 1 н/о н/о +13.9 +11.7 87 +14 +14 1013.9 967.0 +12.3
09 18.08 ЮВ 4-9
{10}
н/о н/о +17.4 +13.3 77 +17 +17 1013.4 967.1
12 18.08 Ю 3-7
{10}
н/о н/о +18.9 +13.3 70 +20 +20 1013.6 967.5
15 18.08 Ю 2 н/о н/о +18.4 +13.0 71 +19 +19 1013.7 967.5
18 18.08 ЮВ 4 н/о н/о +15.6 +11.5 77 +15 +15 1014.7 968.1 +19.8
21 18.08 ЮВ 4-9
{11}
н/о н/о +13.4 +8.8 74 +12 +12 1015.3 968.2
00 19.08 ЮВ 4-8
{10}
н/о н/о +13.5 +8.7 73 +12 +12 1015.0 967.9
03 19.08 ЮВ 3 н/о н/о +13.8 +8.4 70 +13 +13 1014.3 967.3 +13.0
06 19.08 ЮВ 3 н/о н/о +15.2 +9.1 67 +15 +15 1013.2 966.5 +13.0

 

Местоположение метеостанции Кировск (Мурманская область, Россия): широта 67.62 долгота 33.67 высота над уровнем моря 186 м.

В архиве по умолчанию представлена погода в Кировске за последнюю неделю. Архивные данные за месяц целиком и за предыдущие месяцы, начиная с января 2011 года, Вы можете получить, выбрав интересующий диапазон дат из раскрывающегося списка и нажав кнопку "Ввод!".


*Определитесь, кто Вы:
робот инопланетянин человек

Внимание! Время в таблицах - всемирное. Для получения местного времени необходимо прибавить поправку, которая равна 3 ч.

Смотрите также архив погоды в соседних городах и на ближайших метеорологических станциях:

Погода в Апатитах (Мурманская область, Россия) (16 км)
Погода в Умбозере (Мурманская область, Россия) (29 км)
Погода в Мончегорске (Мурманская область, Россия) (46 км)
Погода в Зашейке (Мурманская область, Россия) (54 км)
Погода в Ловозере (Мурманская область, Россия) (71 км)
Погода в Порту Кандалакша (Мурманская область, Россия) (76 км)
Погода в Кандалакше (Мурманская область, Россия) (77 км)
Погода в Пулозере (Мурманская область, Россия) (83 км)
Погода в Порту Витино (Мурманская область, Россия) (83 км)
Погода в Ковде (Мурманская область, Россия) (108 км)

Пояснения к столбцам:

Ветер - указаны скорость ветра в м/с - средняя за 10 мин, порывы в срок и между сроками (в фигурных скобках) и направление, откуда дует ветер: С - северный, СВ - северо-восточный, В - восточный, ЮВ - юго-восточный, Ю - южный, ЮЗ - юго-западный, З - западный, СЗ - северо-западный.
Видимость - горизонтальная дальность видимости в метрах или километрах. При видимости от 1 до 10 км при отсутствии осадков обычно наблюдается дымка, при ухудшении видимости до 1 км и менее - туман. В сухую погоду видимость может ухудшаться дымом, пылью или мглою.
Явления - указаны атмосферные явления, наблюдавшиеся в срок или в последний час перед сроком; фигурными скобками обозначены явления, наблюдавшиеся между сроками (за 1-3 часа до срока); квадратными скобками обозначены град или гололедные отложения с указанием их диаметра в мм.
Облачность - указаны через наклонную черту общая и нижняя облачность в баллах и высота нижней границы облаков в метрах; квадратными скобками обозначены формы облаков: Ci - перистые, Cs - перисто-слоистые, Cc - перисто-кучевые, Ac - высококучевые, As - высокослоистые, Sc - слоисто-кучевые, Ns - слоисто-дождевые, Cu - кучевые, Cb - кучево-дождевые. Подробнее классификацию облаков см. в Атласе облаков (PDF).
T - Температура воздуха - температура, измеренная на высоте 2 м над землей.
Td - Температура точки росы - температура, при понижении до которой содержащийся в воздухе водяной пар достигнет насыщения.
f - Относительная влажность воздуха - влажноcть воздуха, измеренная на высоте 2 м над землей.
Te - Эффективная температура - температура, которую ощущает одетый по сезону человек в тени. Характеристика душности погоды. При расчете учитывается влияние влажности воздуха и скорости ветра на теплоощущения человека.
Tes - Эффективная температура на солнце - температура, которую ощущает человек, с поправкой на солнечный нагрев. Характеристика знойности погоды. Зависит от высоты солнца над горизонтом, облачности и скорости ветра. Ночью, в пасмурную погоду, а также при ветре 12 м/с и более поправка равна нулю.
P - Атмосферное давление - приведенное к уровню моря атмосферное давление.
Po - Атмосферное давление - измеренное на уровне метеостанции атмосферное давление.
Tmin - Минимальная температура - минимум температуры воздуха на высоте 2 м над землей.
Tmax - Максимальная температура - максимум температуры воздуха на высоте 2 м над землей.
R - Количество осадков - Количество выпавших осадков за период времени, мм. При наведении курсора мыши на число - период времени, за который выпало указанное количество осадков.
R24 - Количество осадков - Количество выпавших осадков за 24 часа, мм.
S - Снежный покров - Высота снежного покрова, см. При наведении курсора мыши на число - состояние снежного покрова и степень покрытия местности в баллах.